MST,Max TemperatureF,Mean TemperatureF,Min TemperatureF,Max Dew PointF,MeanDew PointF,Min DewpointF,Max Humidity, Mean Humidity, Min Humidity, Max Sea Level PressureIn, Mean Sea Level PressureIn, Min Sea Level PressureIn, Max VisibilityMiles, Mean VisibilityMiles, Min VisibilityMiles, Max Wind SpeedMPH, Mean Wind SpeedMPH, Max Gust SpeedMPH,PrecipitationIn, CloudCover, Events, WindDirDegrees
2011-12-1,26,17,8,19,16,8,100,87,74,30.66,30.46,30.11,10,10,10,24,13,30,T,3,,250
2011-12-2,35,27,18,31,24,12,89,75,61,30.01,29.84,29.69,10,10,10,22,17,29,0.00,3,,268
2011-12-3,29,19,9,22,13,6,92,77,62,30.19,30.11,29.98,10,10,9,21,10,27,T,5,Snow,277
2011-12-4,25,15,4,22,13,0,96,85,73,30.66,30.18,29.88,10,4,1,31,16,40,0.01,8,Snow,306
2011-12-5,15,4,-8,5,-2,-12,95,81,67,30.64,30.50,30.28,10,8,0,16,7,20,T,2,Snow,218
2011-12-6,34,20,5,27,14,-1,83,69,54,30.21,30.01,29.87,10,10,10,24,16,30,0.00,1,,252
2011-12-7,33,24,14,27,21,10,92,81,69,30.25,30.11,30.01,10,7,1,16,10,21,T,8,Snow,320
2011-12-8,14,4,-6,9,-3,-11,88,71,53,30.35,30.29,30.13,10,10,10,24,13,30,0.00,0,,283
2011-12-9,30,12,-7,19,4,-11,83,70,57,30.43,30.30,30.12,10,10,10,18,10,22,0.00,2,,252
2011-12-10,45,35,24,26,22,17,75,60,45,30.12,29.98,29.83,10,10,10,22,15,28,0.00,0,,250
2011-12-11,39,29,18,24,20,16,92,73,54,30.13,29.95,29.82,10,10,7,15,9,16,0.00,0,,330
2011-12-12,21,20,18,19,18,16,92,92,91,30.34,30.21,30.05,7,2,0,17,9,20,T,8,Fog-Snow,77
2011-12-13,22,21,19,20,18,16,92,88,84,30.26,30.07,29.84,7,3,1,17,11,21,0.00,8,,175
2011-12-14,27,23,18,22,19,15,100,87,74,30.09,29.84,29.70,10,6,1,31,15,40,0.00,6,,270
2011-12-15,23,19,14,17,14,10,88,80,71,30.29,30.22,30.03,10,10,3,29,10,35,T,7,Snow,259
2011-12-16,29,24,18,22,20,17,92,84,75,30.35,30.25,30.11,10,9,3,15,7,18,T,6,Snow,270
2011-12-17,43,33,23,29,24,19,81,69,57,30.22,30.12,29.90,10,10,10,18,12,23,0.00,0,,250
2011-12-18,53,40,26,30,25,21,85,59,32,30.14,29.89,29.71,10,10,10,25,15,31,T,2,,289
2011-12-19,33,24,14,22,16,12,92,70,47,30.37,30.24,30.06,10,10,10,18,9,23,0.00,1,,267
2011-12-20,45,33,20,27,22,14,78,61,43,30.01,29.76,29.64,10,10,10,21,14,24,0.00,1,,261
2011-12-21,36,24,12,31,26,9,92,81,70,30.37,29.92,29.68,10,8,2,21,11,26,T,6,Snow,319
2011-12-22,29,20,11,18,14,6,92,78,63,30.40,30.30,30.12,10,10,10,23,14,28,0.00,1,,253
2011-12-23,39,31,22,20,17,14,74,59,44,30.15,30.10,30.07,10,10,10,23,14,30,0.00,1,,265
2011-12-24,43,34,25,24,20,16,81,60,39,30.33,30.21,30.14,10,10,10,28,15,35,0.00,1,,275
2011-12-25,43,32,20,28,24,18,88,71,53,30.38,30.15,29.76,10,10,10,18,11,22,0.00,0,,220
2011-12-26,44,35,25,29,22,17,75,58,41,30.09,29.86,29.71,10,10,10,40,20,51,0.00,2,,283
2011-12-27,37,27,16,24,20,15,92,74,56,30.11,29.96,29.83,10,10,10,21,10,26,0.00,3,,234
2011-12-28,54,38,21,30,25,18,81,58,35,29.83,29.68,29.54,10,10,10,29,13,33,T,2,Rain,259
2011-12-29,46,35,24,39,32,25,92,75,57,29.62,29.52,29.42,10,10,10,39,15,53,0.03,5,Rain,254
2011-12-30,41,36,31,36,30,22,96,80,64,29.79,29.64,29.44,10,9,5,25,14,37,0.01,7,Rain,244
2011-12-31,44,34,24,38,24,8,92,71,50,30.26,29.88,29.45,10,10,9,28,17,38,0.06,3,Rain,299